Weather History for Granite Falls, MN

Change the Weather History Date:

Monday, March 11, 2013

  Actual Average (KMVE) Record (KMVE)
Temperature  
Mean Temperature 16 °F -  
Max Temperature 26 °F 39 °F 62 °F (2012)
Min Temperature 7 °F 19 °F -8 °F (1956)
Degree Days  
Heating Degree Days 49    
Moisture  
Dew Point 13 °F    
Average Humidity 79    
Maximum Humidity 86    
Minimum Humidity 66    
Precipitation  
Precipitation 0.00 in - - ()
Sea Level Pressure  
Sea Level Pressure 29.89 in    
Wind  
Wind Speed 12 mph (WNW)    
Max Wind Speed 16 mph    
Max Gust Speed 20 mph    
Visibility 10 miles    
Events      
Averages and records for this station are not official NWS values.
T = Trace of Precipitation, MM = Missing Value Source: NWS Daily Summary

Daily Weather History Graph

Daily Weather History Graph

Search for Another Location

Airport:

Trip Planner

Search our weather history database for the weather conditions in past years. The results will help you decide how hot, cold, wet, or windy it might be!

Date:

Astronomy

Mar. 11, 2013 Rise Set
Actual Time 7:41 AM CDT 7:23 PM CDT
Civil Twilight 7:12 AM CDT 7:52 PM CDT
Nautical Twilight 6:38 AM CDT 8:26 PM CDT
Astronomical Twilight 6:04 AM CDT 9:01 PM CDT
Moon 7:14 AM CDT (3/11) 7:39 PM CDT (3/11)
Length of Visible Light 12h 40m
Length of Day
11h 42m
Waning Crescent, 0% of the Moon is Illuminated
Mar 11
Waning Crescent
Mar 11
New
Mar 19
First Quarter
Mar 27
Full
Apr 2
Last Quarter

Hourly Weather History & Observations

Time (CDT) Temp. Windchill Dew Point Humidity Pressure Visibility Wind Dir Wind Speed Gust Speed Precip Events Conditions
12:10 AM 19.4 °F 7.2 °F 15.3 °F 84% 29.99 in 10.0 mi NW 11.5 mph 18.4 mph N/A   Overcast
12:30 AM 19.2 °F 5.8 °F 14.9 °F 83% 29.98 in 10.0 mi NW 13.8 mph 18.4 mph N/A   Overcast
12:50 AM 19.0 °F 6.1 °F 14.9 °F 84% 29.98 in 10.0 mi NW 12.7 mph - N/A   Overcast
1:30 AM 18.1 °F 4.4 °F 14.0 °F 84% 29.97 in 10.0 mi NW 13.8 mph - N/A   Overcast
1:50 AM 18.0 °F 4.8 °F 13.1 °F 81% 29.96 in 10.0 mi NW 12.7 mph 18.4 mph N/A   Overcast
2:10 AM 17.6 °F 3.7 °F 12.7 °F 81% 29.96 in 10.0 mi NNW 13.8 mph 18.4 mph N/A   Overcast
2:50 AM 17.6 °F 5.7 °F 12.9 °F 82% 29.96 in 10.0 mi NW 10.4 mph 17.3 mph N/A   Overcast
3:11 AM 17.6 °F 2.7 °F 12.9 °F 82% 29.96 in 10.0 mi NW 16.1 mph - N/A   Overcast
3:30 AM 17.1 °F 3.6 °F 12.6 °F 82% 29.95 in 10.0 mi NW 12.7 mph - N/A   Overcast
3:50 AM 17.1 °F 3.6 °F 12.6 °F 82% 29.94 in 10.0 mi WNW 12.7 mph - N/A   Overcast
4:11 AM 16.7 °F 4.5 °F 12.2 °F 82% 29.93 in 10.0 mi WNW 10.4 mph - N/A   Overcast
4:30 AM 16.7 °F 3.8 °F 12.2 °F 82% 29.91 in 10.0 mi WNW 11.5 mph - N/A   Overcast
5:10 AM 15.8 °F 0.9 °F 11.7 °F 84% 29.91 in 10.0 mi WNW 15.0 mph - N/A   Overcast
5:30 AM 15.8 °F 0.9 °F 11.3 °F 82% 29.91 in 10.0 mi WNW 15.0 mph - N/A   Overcast
5:51 AM 14.4 °F -1.0 °F 10.4 °F 84% 29.91 in 10.0 mi WNW 15.0 mph - N/A   Overcast
6:10 AM 14.0 °F -1.4 °F 10.0 °F 84% 29.90 in 10.0 mi WNW 15.0 mph - N/A   Overcast
6:30 AM 13.3 °F -2.9 °F 9.3 °F 84% 29.90 in 10.0 mi WNW 16.1 mph - N/A   Overcast
6:51 AM 13.1 °F -1.4 °F 9.5 °F 86% 29.90 in 10.0 mi NW 12.7 mph - N/A   Overcast
7:10 AM 14.0 °F -0.8 °F 9.9 °F 84% 29.90 in 10.0 mi WNW 13.8 mph - N/A   Overcast
7:30 AM 12.2 °F -2.5 °F 8.2 °F 84% 29.90 in 10.0 mi WNW 12.7 mph - N/A   Overcast
7:50 AM 11.8 °F -3.0 °F 7.7 °F 83% 29.90 in 10.0 mi WNW 12.7 mph - N/A   Overcast
8:10 AM 10.8 °F -6.2 °F 6.6 °F 83% 29.91 in 10.0 mi WNW 16.1 mph - N/A   Overcast
8:30 AM 9.7 °F -6.3 °F 5.7 °F 84% 29.91 in 10.0 mi WNW 13.8 mph - N/A   Overcast
8:50 AM 8.6 °F -8.3 °F 4.6 °F 84% 29.91 in 10.0 mi WNW 15.0 mph 19.6 mph N/A   Overcast
9:10 AM 8.6 °F -8.9 °F 4.3 °F 83% 29.91 in 10.0 mi WNW 16.1 mph - N/A   Overcast
9:30 AM 7.9 °F -8.6 °F 3.6 °F 83% 29.91 in 10.0 mi WNW 13.8 mph - N/A   Overcast
9:50 AM 9.0 °F -5.9 °F 4.1 °F 81% 29.90 in 10.0 mi WNW 11.5 mph - N/A   Scattered Clouds
10:10 AM 9.9 °F -4.0 °F 4.6 °F 79% 29.90 in 10.0 mi WNW 10.4 mph - N/A   Clear
10:30 AM 10.9 °F -1.8 °F 5.5 °F 79% 29.90 in 10.0 mi WNW 9.2 mph - N/A   Clear
10:50 AM 11.8 °F -1.5 °F 6.1 °F 78% 29.90 in 10.0 mi WNW 10.4 mph - N/A   Clear
11:10 AM 12.2 °F 0.7 °F 7.0 °F 80% 29.90 in 10.0 mi WNW 8.1 mph - N/A   Clear
11:31 AM 13.8 °F -1.1 °F 8.4 °F 79% 29.89 in 10.0 mi West 13.8 mph - N/A   Clear
11:50 AM 14.5 °F 0.5 °F 9.0 °F 79% 29.89 in 10.0 mi WNW 12.7 mph - N/A   Scattered Clouds
12:11 PM 15.8 °F 4.2 °F 10.2 °F 79% 29.89 in 10.0 mi WNW 9.2 mph - N/A   Scattered Clouds
12:31 PM 16.7 °F 4.5 °F 10.9 °F 78% 29.88 in 10.0 mi NW 10.4 mph - N/A   Mostly Cloudy
12:50 PM 18.1 °F 7.1 °F 12.2 °F 78% 29.88 in 10.0 mi WNW 9.2 mph - N/A   Overcast
1:10 PM 18.9 °F 8.0 °F 12.9 °F 78% 29.87 in 10.0 mi WNW 9.2 mph - N/A   Overcast
1:30 PM 20.5 °F 9.2 °F 14.2 °F 77% 29.86 in 10.0 mi WNW 10.4 mph - N/A   Overcast
1:51 PM 20.3 °F 8.3 °F 14.0 °F 77% 29.86 in 10.0 mi WNW 11.5 mph - N/A   Overcast
2:10 PM 20.7 °F 9.5 °F 14.0 °F 75% 29.85 in 10.0 mi West 10.4 mph - N/A   Overcast
2:30 PM 21.2 °F 9.5 °F 14.5 °F 75% 29.84 in 10.0 mi West 11.5 mph - N/A   Overcast
2:50 PM 21.2 °F 9.5 °F 14.7 °F 76% 29.84 in 10.0 mi WNW 11.5 mph - N/A   Overcast
3:11 PM 21.9 °F 8.2 °F 15.6 °F 77% 29.85 in 10.0 mi West 16.1 mph - N/A   Overcast
3:30 PM 22.8 °F 9.4 °F 16.2 °F 76% 29.85 in 10.0 mi West 16.1 mph - N/A   Overcast
3:51 PM 23.0 °F 9.6 °F 16.2 °F 75% 29.85 in 10.0 mi WNW 16.1 mph - N/A   Scattered Clouds
4:10 PM 24.8 °F 14.0 °F 16.9 °F 72% 29.85 in 10.0 mi WNW 11.5 mph - N/A   Mostly Cloudy
4:30 PM 23.7 °F 11.5 °F 15.4 °F 71% 29.85 in 10.0 mi WNW 13.8 mph - N/A   Mostly Cloudy
4:50 PM 23.7 °F 13.3 °F 15.6 °F 71% 29.84 in 10.0 mi WNW 10.4 mph - N/A   Overcast
5:11 PM 24.8 °F 14.0 °F 15.6 °F 68% 29.83 in 10.0 mi WNW 11.5 mph - N/A   Mostly Cloudy
5:31 PM 24.8 °F 14.6 °F 14.7 °F 66% 29.83 in 10.0 mi WNW 10.4 mph - N/A   Mostly Cloudy
5:50 PM 24.6 °F 13.8 °F 15.4 °F 68% 29.84 in 10.0 mi West 11.5 mph - N/A   Scattered Clouds
6:10 PM 24.1 °F 12.5 °F 15.4 °F 70% 29.86 in 10.0 mi West 12.7 mph - N/A   Scattered Clouds
6:30 PM 23.0 °F 13.9 °F 14.0 °F 68% 29.86 in 10.0 mi WNW 8.1 mph - N/A   Mostly Cloudy
6:50 PM 22.1 °F 12.0 °F 14.5 °F 73% 29.86 in 10.0 mi West 9.2 mph - N/A   Overcast
7:10 PM 22.5 °F 12.4 °F 15.4 °F 74% 29.86 in 10.0 mi West 9.2 mph - N/A   Overcast
7:30 PM 22.8 °F 12.2 °F 15.6 °F 74% 29.87 in 10.0 mi West 10.4 mph - N/A   Overcast
7:50 PM 22.6 °F 12.6 °F 17.2 °F 80% 29.88 in 10.0 mi West 9.2 mph - N/A   Overcast
8:11 PM 22.8 °F 13.6 °F 17.1 °F 79% 29.88 in 10.0 mi West 8.1 mph - N/A   Overcast
8:30 PM 22.8 °F 14.5 °F 17.6 °F 80% 29.88 in 10.0 mi West 6.9 mph - N/A   Overcast
8:50 PM 22.8 °F 14.5 °F 17.4 °F 80% 29.88 in 10.0 mi West 6.9 mph - N/A   Overcast
9:11 PM 21.0 °F 12.4 °F 16.7 °F 83% 29.88 in 10.0 mi WSW 6.9 mph - N/A   Mostly Cloudy
9:30 PM 22.1 °F 15.9 °F 18.0 °F 84% 29.88 in 10.0 mi SW 4.6 mph - N/A   Overcast
9:51 PM 22.8 °F 12.2 °F 18.9 °F 85% 29.88 in 10.0 mi WSW 10.4 mph - N/A   Overcast
10:10 PM 24.6 °F 13.2 °F 18.3 °F 77% 29.89 in 10.0 mi WSW 12.7 mph - N/A   Overcast
10:30 PM 24.8 °F 13.4 °F 18.5 °F 77% 29.88 in 10.0 mi West 12.7 mph - N/A   Overcast
10:51 PM 25.2 °F 14.4 °F 18.9 °F 77% 29.89 in 10.0 mi WSW 11.5 mph - N/A   Overcast
11:11 PM 25.5 °F 14.9 °F 19.4 °F 78% 29.88 in 10.0 mi West 11.5 mph - N/A   Overcast
11:50 PM 26.2 °F 15.8 °F 21.2 °F 81% 29.88 in 10.0 mi West 11.5 mph - N/A   Overcast